Hourly Data Report for September 13, 2017

All times are specified in Local Standard Time (LST). Add 1 hour to adjust for Daylight Saving Time where and when it is observed.

QUEBEC/JEAN LESAGE INTL
QUEBEC

46°48'13.000" N
71°22'54.000" W
60.00 m
701S001
71714
WQB

Download Data

Hourly Data (September 2017)
Hourly Data Report for September 13, 2017
Temp Definition
°C
Dew Point Temp Definition
°C
Rel Hum Definition
%
Wind Dir Definition
10's deg

Wind Spd Definition
km/h
Visibility Definition
km
Stn Press Definition
kPa
Hmdx Definition


Wind Chill Definition


Weather Definition


TIME
00:00 12.5 11.8 96 27 6   100.14     LegendNANA
01:00 11.0 10.6 98 32 2   100.16     LegendNANA
02:00 10.1 9.9 99 30 3   100.17     LegendNANA
03:00 9.4 9.2 99 0 1   100.19     LegendNANA
04:00 9.0 8.9 99 34 2   100.23     LegendNANA
05:00 9.2 9.1 99 28 6   100.29     LegendNANA
06:00 13.4 13.3 100 26 14   100.30     LegendNANA
07:00 12.6 12.6 100 2 4   100.31     LegendNANA
08:00 13.9 13.8 100 24 9   100.32     LegendNANA
09:00 15.4 14.6 95 24 8   100.28     LegendNANA
10:00 18.4 14.3 77 23 14   100.22     LegendNANA
11:00 21.6 15.2 67 24 15   100.16 26   LegendNANA
12:00 23.3 14.2 56 24 18   100.10 27   LegendNANA
13:00 24.2 13.8 52 25 17   100.02 27   LegendNANA
14:00 24.5 12.9 48 24 18   99.97 27   LegendNANA
15:00 24.5 11.9 46 24 19   99.95 27   LegendNANA
16:00 24.0 13.2 51 23 12   99.93 27   LegendNANA
17:00 22.6 14.1 59 23 9   99.93 26   LegendNANA
18:00 21.3 14.2 64 22 7   99.94 25   LegendNANA
19:00 16.0 13.8 87 22 4   99.98     LegendNANA
20:00 15.0 13.8 93 22 4   99.99     LegendNANA
21:00 13.8 13.0 95 26 4   100.01     LegendNANA
22:00 14.6 13.5 93 35 2   100.02     LegendNANA
23:00 13.0 11.9 93 0 1   100.02     LegendNANA

Notes on Data Quality.

Legend

  • E = Estimated
  • M = Missing
  • NA = Not Available
  • ‡ = Partner data that is not subject to review by the National Climate Archives
Date modified: